Regional Weather Roundup
Issued by NWS

Home | Current Version | Previous Version | Graphics & Text | Print | Product List | Glossary On
Versions: 1 2 3 4 5 6 7 8 9 10 11 12 13 14 15 16 17 18 19 20 21 22 23 24 25 26 27 28 29 30 31 32 33 34 35 36 37 38 39 40 41 42 43 44 45 46 47 48 49 50
000
ASUS43 KOAX 240602
RWRNE

WEATHER ROUNDUP FOR NEBRASKA
NATIONAL WEATHER SERVICE OMAHA NE
1200 AM CST FRI FEB 24 2017

NOTES: SATELLITE DATA IS BEING USED TO AUGMENT CLOUD COVER ABOVE
       12000 FEET.
       "FAIR" INDICATES FEW OR NO CLOUDS BELOW 12,000 FEET WITH NO
       SIGNIFICANT WEATHER AND/OR OBSTRUCTIONS TO VISIBILITY.

  * THESE STATIONS DO NOT REPORT WEATHER SUCH AS RAIN...SNOW OR FOG.

NEZ001>004-019>022-054>056-240700-
NEBRASKA PANHANDLE

CITY           SKY/WX    TMP DP  RH WIND       PRES   REMARKS
SCOTTSBLUFF    LGT SNOW  23  17  78 NE18      29.89F WCI   9
6HR MIN TEMP:  23; 6HR MAX TEMP:  24; 6HR PCP:  0.11;

ALLIANCE       LGT SNOW  20  18  92 N13       29.87S FOG     WCI   7
6HR MIN TEMP:  20; 6HR MAX TEMP:  22; 6HR PCP: TRACE;

CHADRON        LGT SNOW  24  20  84 NE13      29.96S FOG     WCI  12
6HR MIN TEMP:  24; 6HR MAX TEMP:  25; 6HR PCP: TRACE;

KIMBALL        FLURRIES  21  20  97 N10G18    29.83S WCI   9
SIDNEY         CLOUDY    20  17  88 N20       29.83R WCI   4
6HR MIN TEMP:  20; 6HR MAX TEMP:  22; 6HR PCP: TRACE;

$$

NEZ057>060-069>072-079>082-240700-
SOUTHWEST NEBRASKA

CITY           SKY/WX    TMP DP  RH WIND       PRES   REMARKS
NORTH PLATTE   LGT SNOW  24  19  81 N22G33    29.79S WCI   9
6HR MIN TEMP:  24; 6HR MAX TEMP:  27; 6HR PCP:  0.10;

IMPERIAL       LGT SNOW  23  19  85 N18       29.82S FOG     WCI   9
6HR MIN TEMP:  23; 6HR MAX TEMP:  27; 6HR PCP:  0.01;

LEXINGTON      CLOUDY    27  24  88 N21       29.76S FOG     WCI  13
MCCOOK         CLOUDY    27  24  89 N16G25    29.78R WCI  15
6HR MIN TEMP:  25; 6HR MAX TEMP:  31; 6HR PCP: TRACE;

OGALLALA       LGT SNOW  25  22  86 N21G28    29.83R WCI  11
$$

NEZ005>010-023>029-035>040-094-240700-
NORTH CENTRAL NEBRASKA

CITY           SKY/WX    TMP DP  RH WIND       PRES   REMARKS
VALENTINE      CLOUDY    23  19  85 N18G29    29.89S FOG     WCI   9
6HR MIN TEMP:  23; 6HR MAX TEMP:  26; 6HR PCP:  1.04;

AINSWORTH        N/A     23  23  97 N25       29.85S WCI   7
BROKEN BOW     LGT SNOW  25  23  92 N23G35    29.75S FOG     WCI  10
6HR MIN TEMP:  25; 6HR MAX TEMP:  29; 6HR PCP:  0.05;

O`NEILL        CLOUDY    26  25  96 N22G32    29.82S WCI  12
ORD            LGT SNOW  26  21  81 N18G29    29.75F WCI  13
6HR MIN TEMP:  26; 6HR MAX TEMP:  29; 6HR PCP:  0.04;

THEDFORD       LGT SNOW  24  22  92 N21G29    29.83R VSB 1   WCI   9
$$

NEZ041-046>049-061>064-073>077-083>087-240700-
SOUTH CENTRAL NEBRASKA

CITY           SKY/WX    TMP DP  RH WIND       PRES   REMARKS
GRAND ISLAND   FRZ RAIN  29  28  96 N17       29.70F FOG     WCI  17
6HR MIN TEMP:  28; 6HR MAX TEMP:  31; 6HR PCP:  0.02;

AURORA         MIX PCPN  30  29  95 N18G26    29.68S WCI  18
HASTINGS       FRZ RAIN  30  27  88 N21       29.69F FOG     WCI  17
6HR MIN TEMP:  30; 6HR MAX TEMP:  32; 6HR PCP:  0.01;

HEBRON         CLOUDY    32  31  95 N17       29.64S WCI  21
HOLDREGE       CLOUDY    28  26  93 N14G21    29.72S FOG     WCI  17
KEARNEY *      CLOUDY    28  23  80 N17G25    29.72S WCI  16
YORK           CLOUDY    32  28  86 N22G28    29.66S WCI  19
$$

NEZ011>018-030>034-042>045-240700-
NORTHEAST NEBRASKA

CITY           SKY/WX    TMP DP  RH WIND       PRES   REMARKS
NORFOLK        LGT SNOW  28  25  88 N24       29.71R FOG     WCI  14
6HR MIN TEMP:  28; 6HR MAX TEMP:  30; 6HR PCP:  0.19;

ALBION         CLOUDY    29  25  84 N17G23    29.72S WCI  17
BLAIR          LGT SNOW  32  32  99 N23G29    29.56F VSB 3/4 WCI  19
FREMONT        LGT SNOW  32  32 100 N9        29.62R WCI  24
TEKAMAH        LGT SNOW  32  31  96 N24       29.64F VSB 1   WCI  19
6HR MIN TEMP:  32; 6HR MAX TEMP:  36; 6HR PCP:  0.25;

WAYNE          LGT SNOW  29  28  96 N22       29.72R WCI  15
$$

NEZ050>053-065>068-078-088>093-240700-
SOUTHEAST NEBRASKA

CITY           SKY/WX    TMP DP  RH WIND       PRES   REMARKS
LINCOLN        CLOUDY    33  31  92 N18       29.62R WCI  22
6HR MIN TEMP:  33; 6HR MAX TEMP:  38; 6HR PCP:  0.37;

OMAHA EPPLEY   LGT SNOW  33  29  85 N13G24    29.61F FOG     WCI  24
6HR MIN TEMP:  33; 6HR MAX TEMP:  39; 6HR PCP:  0.43;

BEATRICE       CLOUDY    34  34  99 N14       29.58R WCI  25
NEBRASKA CITY  CLOUDY    34  34 100 NE22G28   29.53F WCI  22
PLATTSMOUTH    CLOUDY    33  31  92 N15G24    29.54F WCI  23
$$

NEZ044-045-051>053-067-240700-
OMAHA AREA

CITY           SKY/WX    TMP DP  RH WIND       PRES   REMARKS
OMAHA EPPLEY   LGT SNOW  33  29  85 N13G24    29.61F FOG     WCI  24
6HR MIN TEMP:  33; 6HR MAX TEMP:  39; 6HR PCP:  0.43;

BLAIR          LGT SNOW  32  32  99 N23G29    29.56F VSB 3/4 WCI  19
FREMONT        LGT SNOW  32  32 100 N9        29.62R WCI  24
MILLARD        FLURRIES  35  33  93 NE10G20   29.57F WCI  27
OFFUTT AFB     FLURRIES  32  32 100 NE18G25   29.56F WCI  20
PLATTSMOUTH    CLOUDY    33  31  92 N15G24    29.54F WCI  23
WAHOO          LGT SNOW  32  31  96 N22       29.62R WCI  19
$$




USA.gov is the U.S. government's official web portal to all federal, state and local government web resources and services.